,

(GMT )
Teruel

Tiempo Historia de LETL - Abril, 2018

Change the Weather History Date:

Martes, Abril 17, 2018

  Actual Average (WUND) Record (WUND)
Temperature  
Temperatura media 52 ° F -  
Temperatura máxima 68 ° F - - (-1)
Temperatura mínima 35 ° F - - (-1)
Degree Days  
Grados día de calefacción 14    
Growing Degree Days 2 (Base 50)    
Moisture  
Punto de rocío 34 ° F    
Average Humidity 62    
Maximum Humidity 93    
Minimum Humidity 15    
Precipitación  
Precipitación 0.00 pul - - ()
Presión al nivel del mar  
Presión al nivel del mar 30.25 pul    
Viento  
Velocidad del viento 4 mph ()    
Velocidad máxima del viento 8 mph    
Max Gust Speed -    
Visibilidad 5.9 Millas    
Eventos Lluvia    
Averages and records for this station are not official NWS values.
T = Trace of Precipitation, MM = Missing Value Source: Averaged Metar Reports

Daily Weather History Graph

Daily Weather History Graph

Search for Another Location

Airport or City:

Astronomía

Apr. 17, 2018 Salida Puesta
Hora real 7:23 AM CEST 8:45 PM CEST
Crepúsculo civil 6:55 AM CEST 9:14 PM CEST
Crepúsculo náutico 6:21 AM CEST 9:48 PM CEST
Crepúsculo astronómico 5:45 AM CEST 10:24 PM CEST
Luna 8:33 AM CEST (4/17) 10:25 PM CEST (4/17)
Horas de luz 14h 18m
Horas de luz
13h 21m
Luna nueva, 2% of the Moon is Illuminated
Abr 17
Luna nueva
Abr 22
Cuarto creciente
Abr 30
Luna llena
May 8
Cuarto menguante
May 15
Nueva

Hourly Weather History & Observations

Hora (CEST) Temp. Vientos helados Punto de rocío Humedad Presión Visibilidad Wind Dir Velocidad del viento Velocidad de ráfagas Precip Eventos Condiciones
12:30 AM 42.8 ° F 40.1 ° F 41.0 ° F 93% 30.18 pul 6.2 mi ONO 4.6 mph - N/A   Desconocido
1:00 AM 42.8 ° F 40.1 ° F 39.2 ° F 87% 30.21 pul 6.2 mi NO 4.6 mph - N/A   Desconocido
2:00 AM 41.0 ° F 38.0 ° F 37.4 ° F 87% 30.21 pul 6.2 mi ONO 4.6 mph - N/A   Desconocido
2:30 AM 41.0 ° F 37.1 ° F 37.4 ° F 87% 30.21 pul 6.2 mi NO 5.8 mph - N/A   Desconocido
3:30 AM 39.2 ° F 34.2 ° F 37.4 ° F 93% 30.21 pul 6.2 mi Oeste 6.9 mph - N/A   Desconocido
4:00 AM 39.2 ° F 34.2 ° F 35.6 ° F 87% 30.21 pul 6.2 mi Oeste 6.9 mph - N/A   Desconocido
4:30 AM 37.4 ° F - 35.6 ° F 93% 30.24 pul 6.2 mi Variable 1.2 mph - N/A   Desconocido
5:00 AM 39.2 ° F 35.0 ° F 35.6 ° F 87% 30.24 pul 6.2 mi ONO 5.8 mph - N/A   Desconocido
6:00 AM 37.4 ° F 33.8 ° F 33.8 ° F 87% 30.24 pul 6.2 mi ONO 4.6 mph - N/A   Desconocido
6:30 AM 37.4 ° F - 35.6 ° F 93% 30.24 pul 6.2 mi Variable 1.2 mph - N/A   Desconocido
7:00 AM 37.4 ° F - 33.8 ° F 87% 30.24 pul 6.2 mi NE 1.2 mph - N/A   Desconocido
7:30 AM 35.6 ° F - 33.8 ° F 93% 30.24 pul 6.2 mi Oeste 2.3 mph - N/A   Desconocido
10:00 AM 46.4 ° F - 39.2 ° F 76% 30.30 pul 6.2 mi Variable 1.2 mph - N/A   Desconocido
10:30 AM 50.0 ° F - 41.0 ° F 71% 30.30 pul 6.2 mi ENE 1.2 mph - N/A   Desconocido
2:00 PM 60.8 ° F - 24.8 ° F 25% 30.27 pul 6.2 mi Variable 4.6 mph - N/A   Desconocido
3:00 PM 64.4 ° F - 15.8 ° F 15% 30.27 pul 6.2 mi NNO 4.6 mph - N/A   Desconocido
4:00 PM 66.2 ° F - 24.8 ° F 21% 30.27 pul 6.2 mi Norte 3.5 mph - N/A   Desconocido
5:00 PM 68.0 ° F - 24.8 ° F 20% 30.24 pul 6.2 mi NNE 6.9 mph - N/A   Desconocido
5:30 PM 66.2 ° F - 24.8 ° F 21% 30.24 pul 6.2 mi NNE 5.8 mph - N/A   Desconocido
6:00 PM 68.0 ° F - 24.8 ° F 20% 30.24 pul 6.2 mi NNO 6.9 mph - N/A   Desconocido
6:30 PM 68.0 ° F - 26.6 ° F 21% 30.24 pul 6.2 mi Norte 5.8 mph - N/A   Desconocido
7:00 PM 68.0 ° F - 28.4 ° F 23% 30.24 pul 6.2 mi Norte 5.8 mph - N/A   Desconocido
7:30 PM 68.0 ° F - 30.2 ° F 24% 30.24 pul 6.2 mi NNO 5.8 mph - N/A   Desconocido
9:30 PM 57.2 ° F - 41.0 ° F 55% 30.27 pul 0.3 mi NNO 4.6 mph - N/A Lluvia Lluvias fuertes
10:00 PM 55.4 ° F - 44.6 ° F 67% 30.30 pul 5.6 mi ESE 8.1 mph - N/A   Desconocido
11:00 PM 51.8 ° F - 44.6 ° F 76% 30.30 pul 6.2 mi ESE 5.8 mph - N/A   Desconocido